Regional Weather Roundup
Issued by NWS

Home | Current Version | Previous Version | Graphics & Text | Print | Product List | Glossary On
Versions: 1 2 3 4 5 6 7 8 9 10 11 12 13 14 15 16 17 18 19 20 21 22 23 24 25 26 27 28 29 30 31 32 33 34 35 36 37 38 39 40 41 42 43 44 45 46 47 48 49 50
000
ASUS45 KABQ 020810
RWRNM
WEATHER ROUNDUP FOR NEW MEXICO
NATIONAL WEATHER SERVICE ALBUQUERQUE NM
200 AM MDT TUE SEP 02 2014

NOTE: "FAIR" MEANS FEW OR NO CLOUDS BELOW 12,000 FEET AGL WITH NO
       SIGNIFICANT WEATHER OR OBSTRUCTIONS TO VISION.

      THIS PRODUCT IS RELEASED AS TWO VERSIONS.  ONE VERSION NEAR
      THE TOP OF THE HOUR CONTAINING PRELIMINARY DATA FROM ALBUQUERQUE
      AND OTHER STATIONS.  A FINAL VERSION WITH ADDITIONAL DATA IS
      ISSUED ABOUT 10 MINUTES AFTER THE HOUR.

NMZ501-503-504-510>518-020900-
NORTHWEST PLATEAU/NORTHCENTRAL MOUNTAINS

CITY           SKY/WX    TMP DP  RH WIND       PRES   REMARKS
FARMINGTON     CLEAR     60  31  33 E3        30.09S
LOS ALAMOS     CLEAR     71  28  19 CALM      30.22F
SANTA FE       CLEAR     63  30  28 N12       30.13F
ANGEL FIRE     FAIR      41  31  69 CALM      30.33S

$$
NMZ402-403-502-505>509-020900-
WESTCENTRAL MOUNTAINS/SOUTHWEST MOUNTAINS

CITY           SKY/WX    TMP DP  RH WIND       PRES   REMARKS
GALLUP         CLEAR     56  31  38 VRB3      30.20R
SILVER CITY    CLEAR     64  27  24 N10       30.13S

$$
NMZ407-409-411-412-020900-
SOUTHERN DESERTS

CITY           SKY/WX    TMP DP  RH WIND       PRES   REMARKS
LORDSBURG      FAIR      68  36  30 W8        30.04S
DEMING         CLEAR     65  34  31 W7        30.02S
LAS CRUCES     CLEAR     77  32  19 W8        30.02S
HOLLOMAN AFB   CLEAR     74  37  25 SE7       29.96F
ALAMOGORDO     CLEAR     73  34  23 E3        29.99S
T OR C         CLEAR     70  38  31 NW6       30.02F

$$
NMZ519>523-020900-
CENTRAL VALLEYS/CENTRAL HIGHLANDS

CITY           SKY/WX    TMP DP  RH WIND       PRES   REMARKS
ALBUQUERQUE    CLEAR     72  41  32 CALM      30.08S
DOUBLE EAGLE   CLEAR     65  34  32 NW8       30.12S
MORIARTY ARPT  FAIR      49  42  75 CALM      30.16S
CLINES CORNERS CLEAR     64  35  34 W5        30.18F
BELEN          FAIR      63  36  36 N3        30.07S
SOCORRO        FAIR      67  44  43 CALM      30.04S

$$
NMZ524>526-539-540-020900-
SOUTHCENTRAL MOUNTAINS

CITY           SKY/WX    TMP DP  RH WIND       PRES   REMARKS
RUIDOSO        CLEAR     64  34  32 W6        30.20F

$$
NMZ527>531-020900-
NORTHEAST HIGHLANDS/NORTHEAST PLAINS

CITY           SKY/WX    TMP DP  RH WIND       PRES   REMARKS
LAS VEGAS      CLEAR     63  29  27 CALM      30.16F
RATON          CLEAR     58  40  51 NE8       30.14R
CLAYTON        MOCLDY    63  59  87 N10       30.06R

$$
NMZ532>537-020900-
EASTCENTRAL PLAINS

CITY           SKY/WX    TMP DP  RH WIND       PRES   REMARKS
TUCUMCARI      CLEAR     72  39  30 W8        29.91F
CANNON AFB     CLEAR     79  41  25 W9        29.95F
CLOVIS AIRPORT   N/A     68  45  42 CALM      29.98S

$$
NMZ028-029-538-020900-
SOUTHEAST PLAINS

CITY           SKY/WX    TMP DP  RH WIND       PRES   REMARKS
ROSWELL        CLEAR     76  39  26 NW8       29.90S
CARLSBAD       CLEAR     80  46  30 S7        29.89S
HOBBS          CLEAR     79  59  50 S15G23    29.95S


$$



USA.gov is the U.S. government's official web portal to all federal, state and local government web resources and services.